Location: San Antonio de Areco
(34.2500°S, 59.4670°W)
Time: 09:22:14
(UTC-03:00)

ISS - Visible Passes

Search period start: 23 September 2014 00:00
Search period end: 03 October 2014 00:00
Orbit: 413 x 416 km, 51.6° (Epoch: 23 September)

Date Brightness Start Highest point End Pass type
(mag) Time Alt. Az. Time Alt. Az. Time Alt. Az.
23 Sep -2.4 19:56:50 10° SSW 20:00:00 35° SE 20:01:06 27° ESE visible
24 Sep -1.8 20:44:35 10° WSW 20:47:29 34° WNW 20:47:29 34° WNW visible
25 Sep -3.1 19:55:26 10° SW 19:58:49 71° NW 20:01:03 19° NE visible
26 Sep -0.2 20:45:18 10° WNW 20:46:07 11° NW 20:46:56 10° NW visible
27 Sep -0.8 19:54:42 10° WSW 19:57:17 21° NW 19:59:52 10° N visible
